Regional Weather Roundup
Issued by NWS

Home | Current Version | Previous Version | Text Only | Print | Product List | Glossary On
Versions: 1 2 3 4 5 6 7 8 9 10 11 12 13 14 15 16 17 18 19 20 21 22 23 24 25 26 27 28 29 30 31 32 33 34 35 36 37 38 39 40 41 42 43 44 45 46 47 48 49 50
000
ASUS45 KABQ 251210
RWRNM
NEW MEXICO REGIONAL WEATHER ROUNDUP
NATIONAL WEATHER SERVICE ALBUQUERQUE NM
500 AM MST SAT NOV 25 2017

NOTE: "FAIR" MEANS FEW OR NO CLOUDS BELOW 12,000 FEET AGL WITH NO
       SIGNIFICANT WEATHER OR OBSTRUCTIONS TO VISION.

      THIS PRODUCT IS RELEASED AS TWO VERSIONS.  ONE VERSION NEAR
      THE TOP OF THE HOUR CONTAINING PRELIMINARY DATA FROM ALBUQUERQUE
      AND OTHER STATIONS.  A FINAL VERSION WITH ADDITIONAL DATA IS
      ISSUED ABOUT 10 MINUTES AFTER THE HOUR.

NMZ501-503-504-510>518-251300-
NORTHWEST PLATEAU/NORTHCENTRAL MOUNTAINS

CITY           SKY/WX    TMP DP  RH WIND       PRES   REMARKS
FARMINGTON     FAIR      32  21  64 E8        30.21R WCI  25
6HR MIN TEMP:  29; 6HR MAX TEMP:  42;

LOS ALAMOS     FAIR      47  17  29 SW10      30.27S
SANTA FE       FAIR      35  22  58 N5        30.25R WCI  31
6HR MIN TEMP:  32; 6HR MAX TEMP:  45;

TAOS           FAIR      24  16  71 N7        30.30R WCI  16
ANGEL FIRE     FAIR      22  19  91 E3        30.31R

$$
NMZ402-403-502-505>509-251300-
WESTCENTRAL MOUNTAINS/SOUTHWEST MOUNTAINS

CITY           SKY/WX    TMP DP  RH WIND       PRES   REMARKS
GALLUP         FAIR      26  11  52 CALM      30.28R
6HR MIN TEMP:  22; 6HR MAX TEMP:  35;

GRANTS         FAIR      26  12  56 NW13      30.30S WCI  15
SILVER CITY    FAIR      50  22  33 NW12      30.18R

$$
NMZ407-409-411-412-251300-
SOUTHERN DESERTS

CITY           SKY/WX    TMP DP  RH WIND       PRES   REMARKS
DEMING         FAIR      39  21  48 CALM      30.14R
6HR MIN TEMP:  39; 6HR MAX TEMP:  53;

LAS CRUCES     FAIR      51  24  35 N6        30.12R
HOLLOMAN AFB   FAIR      35  20  52 N6        30.13R WCI  30
ALAMOGORDO     FAIR      41  23  48 CALM      30.11R
T OR C         FAIR     N/A N/A N/A NW8       30.15R

$$
NMZ519>523-251300-
CENTRAL VALLEYS/CENTRAL HIGHLANDS

CITY           SKY/WX    TMP DP  RH WIND       PRES   REMARKS
ALBUQUERQUE    FAIR      47  20  34 N7        30.22R
6HR MIN TEMP:  44; 6HR MAX TEMP:  56;

MORIARTY ARPT  FAIR      29  21  69 N3        30.27R
6HR MIN TEMP:  28; 6HR MAX TEMP:  38;

CLINES CORNERS FAIR      41  27  57 E5        30.27R
6HR MIN TEMP:  39; 6HR MAX TEMP:  48;

BELEN          FAIR      34  23  62 SW6       30.22R WCI  29
6HR MIN TEMP:  33; 6HR MAX TEMP:  44;

SOCORRO        FAIR      44  20  38 NW15      30.20R
6HR MIN TEMP:  41; 6HR MAX TEMP:  51;


$$
NMZ524>526-539-540-251300-
SOUTHCENTRAL MOUNTAINS

CITY           SKY/WX    TMP DP  RH WIND       PRES   REMARKS
RUIDOSO        FAIR      43  27  52 NW6       30.27R

$$
NMZ527>531-251300-
NORTHEAST HIGHLANDS/NORTHEAST PLAINS

CITY           SKY/WX    TMP DP  RH WIND       PRES   REMARKS
LAS VEGAS      FAIR      37  27  67 SW5       30.24S WCI  33
6HR MIN TEMP:  36; 6HR MAX TEMP:  45;

RATON          FAIR      32  26  78 N8        30.23R WCI  25
6HR MIN TEMP:  28; 6HR MAX TEMP:  44;

CLAYTON        FAIR      38  32  79 W10       30.16R WCI  31
6HR MIN TEMP:  38; 6HR MAX TEMP:  45;


$$
NMZ532>537-251300-
EASTCENTRAL PLAINS

CITY           SKY/WX    TMP DP  RH WIND       PRES   REMARKS
SANTA ROSA     FAIR      42  32  67 CALM      30.19S
TUCUMCARI      FAIR      43  33  68 N7        30.13S
6HR MIN TEMP:  41; 6HR MAX TEMP:  57;

CANNON AFB     FAIR      44  36  73 N14       30.14R
6HR MIN TEMP:  44; 6HR MAX TEMP:  56;

CLOVIS AIRPORT FAIR      44  34  67 N13       30.14R

$$
NMZ028-029-538-251300-
SOUTHEAST PLAINS

CITY           SKY/WX    TMP DP  RH WIND       PRES   REMARKS
ROSWELL        FAIR      55  32  41 NW14      30.13R
6HR MIN TEMP:  55; 6HR MAX TEMP:  67;

ARTESIA        FAIR      52  32  46 NW13      30.14R
CARLSBAD       FAIR      56  32  40 NW20G28   30.09R
6HR MIN TEMP:  56; 6HR MAX TEMP:  68;

HOBBS          FAIR      46  34  61 N13       30.06R


$$




USA.gov is the U.S. government's official web portal to all federal, state and local government web resources and services.